Preview of NWS' New Version of Forecast
This preview is not operational and should not be used for support decisions.

Regional Weather Roundup (RWR)

Issued by Gray - Portland, ME (GYX)

                            
000
ASUS41 KGYX 210010
RWRGYX
WEATHER ROUNDUP FOR MAINE AND NEW HAMPSHIRE
NATIONAL WEATHER SERVICE GRAY ME
700 PM EST SUN JAN 20 2019

MEZ002-005-006-010-012-015-018-020-021-024-026-027-029-210100-
MAINE
  
CITY           SKY/WX    TMP DP  RH WIND       PRES   REMARKS
PORTLAND       LGT SNOW  16  13  88 N13G24    29.28F FOG     WCI   2  
6HR MIN TEMP:   9; 6HR MAX TEMP:  16; 6HR PCP:  0.13;                

SANFORD        FLURRIES  18  15  88 NW7       29.29F                  
BAR HARBOR     LGT SNOW  16  13  88 N13G18    29.21R VSB 1   WCI   2  
WISCASSET      CLOUDY    12   8  84 VRB6      29.30F FOG              
6HR MIN TEMP:   7; 6HR MAX TEMP:  11; 6HR PCP:  0.06;                

ROCKLAND       LGT SNOW  11   8  88 NW9G20    29.23S FOG              
FRYEBURG       CLOUDY    15  12  88 CALM      29.29F FOG              
6HR MIN TEMP:  12; 6HR MAX TEMP:  15; 6HR PCP:  0.20;                

LEWISTONAUBURN LGT SNOW  15  12  88 N12       29.30F FOG     WCI   2  
AUGUSTA        LGT SNOW   8   4  83 N22G30    29.32R FOG     WCI -12  
6HR MIN TEMP:   4; 6HR MAX TEMP:   9; 6HR PCP: TRACE;                

WATERVILLE     LGT SNOW N/A N/A N/A MISG        N/A                   
BANGOR         LGTSLEET  10   6  84 N17G23    29.30S VSB 3/4 WCI  -8  
6HR MIN TEMP:   6; 6HR MAX TEMP:  10;                                

GREENVILLE       N/A      2  -5  72 N10G25    29.27S WCI -14          
6HR MIN TEMP:  -4; 6HR MAX TEMP:   2; 6HR PCP:  0.50;                

MILLINOCKET    BLWGSNOW  11   6  81 NW12      29.35S VSB 1   WCI  -3  
6HR MIN TEMP:   0; 6HR MAX TEMP:  10; 6HR PCP: TRACE;                

HOULTON        SNOW      14  11  87 N9        29.28F VSB 1/2          
6HR MIN TEMP:   6; 6HR MAX TEMP:  14; 6HR PCP:  0.53;                

PRESQUE ISLE   LGT SNOW  12   9  87 N20       29.37F VSB 3/4 WCI  -6  
6HR MIN TEMP:   0; 6HR MAX TEMP:  12; 6HR PCP: TRACE;                

FRENCHVILLE    HVY SNOW  13   7  77 MISG      29.43F VSB 1/4          
6HR MIN TEMP:   1; 6HR MAX TEMP:  13; 6HR PCP:  0.16;                

CARIBOU        HVY SNOW  13   8  81 N18       29.37F VSB 1/4 WCI  -4  
6HR MIN TEMP:   0; 6HR MAX TEMP:  13; 6HR PCP:  0.64;                

$$

NHZ002-005-008-009-011-012-014-210100-
NEW HAMPSHIRE
  
CITY           SKY/WX    TMP DP  RH WIND       PRES   REMARKS
PORTSMOUTH     CLOUDY    20  17  87 W6        29.29S                  
ROCHESTER      CLOUDY    20  17  88 NW8       29.28F                  
6HR MIN TEMP:  12; 6HR MAX TEMP:  20; 6HR PCP:  0.06;                

NASHUA         FLURRIES  21  16  81 NW24      29.36R WCI   4          
MANCHESTER     MOCLDY    22  13  68 NW17G30   29.35R WCI   8          
6HR MIN TEMP:  17; 6HR MAX TEMP:  23; 6HR PCP:  0.06;                

CONCORD        CLOUDY    18  11  74 NW25G33   29.36R WCI   0          
6HR MIN TEMP:  15; 6HR MAX TEMP:  21; 6HR PCP:  0.17;                

LACONIA        FLURRIES  15   8  73 W15G24    29.34R WCI   0          
PLYMOUTH       LGT SNOW   9   1  69 W24G35    29.41R WCI -12          
BERLIN         LGT SNOW   5   0  79 NW7       29.43R                  
6HR MIN TEMP:   7; 6HR MAX TEMP:  11; 6HR PCP:  0.14;                

WHITEFIELD     LGT SNOW   4  -2  76 W9        29.50R                  
6HR MIN TEMP:   5; 6HR MAX TEMP:  19; 6HR PCP:  0.15;                

JAFFREY        FAIR      15   5  64 NW13G26   29.37R WCI   1          
6HR MIN TEMP:  15; 6HR MAX TEMP:  21; 6HR PCP:  0.11;                

KEENE          FLURRIES  11   1  64 NW15G23   29.49R WCI  -5          
LEBANON        MOCLDY     6  -6  57 NW10      29.53R WCI  -9          
6HR MIN TEMP:   6; 6HR MAX TEMP:  18; 6HR PCP:  0.17;                

MT WASHINGTON  SNOWSHWR   7   7 100 W28         N/A  VSB 1/16WCI -16  
6HR MIN TEMP:   7; 6HR MAX TEMP:  25; 6HR PCP:  0.11;                

$$

VTZ005-007-008-210100-
VERMONT
  
CITY           SKY/WX    TMP DP  RH WIND       PRES   REMARKS
ST JOHNSBURY     N/A      3  -4  72 MISG      29.55R                  
MONTPELIER     CLOUDY    -4  -8  83 NW14G25   29.58R FOG     WCI -24  
BURLINGTON     LGT SNOW   0  -6  76 N12       29.73R WCI -17          
$$

MAZ007-012-024-CTZ003-RIZ002-NYZ038-NYZ072-210100-
SOUTHERN NEW ENGLAND AND NY
  
CITY           SKY/WX    TMP DP  RH WIND       PRES   REMARKS
BOSTON         CLOUDY    26  21  81 NW14G25   29.33R WCI  14          
WORCESTER      CLOUDY    18  11  74 NW21G31   29.33R WCI   1          
NANTUCKET      LGT SNOW  28  27  96 N23G35    29.27R FOG     WCI  14  
PROVIDENCE     CLOUDY    27  21  78 NW15G24   29.36R WCI  15          
HARTFORD       CLOUDY    12   4  70 NW17G25   29.50R WCI  -5          
ALBANY         FLURRIES   6  -5  60 W22G35    29.69R WCI -15          
NEW YORK CITY  FAIR      20   8  60 NW31G40   29.60R WCI   1          
$$

ANZ081-ANZ082-ANZ150-NHZ014-MEZ023>029-210100-
COASTAL MARINE OBSERVATIONS
  
STATION/POSITION TIME  TEMP    WIND        PRES    WAVE
                       AIR SEA DIR/SP/G            HT/PER
                 (UTC) (F)     (DEG/KT/KT) (MB)    (FT/S)
MOUNT DESERT ROC 0000   33     310/ 22/ 26  985.9F
MATINICUS ROCK   0000   21     340/ 27/ 30  987.3F
ISLE OF SHOALS   0000   22     320/ 13/ 15  991.9F
JEFFREYS LEDGE   2338      42                N/A     9/ 8
CASHES LEDGE BUO 2350      40               987.9R  10/ 8
$$

.............KEY..............
   WCI - WIND CHILL
   TC  - TEMPERATURE IN CELSIUS
   VSB - VISIBILITY IN MILES
   HX  - HEAT INDEX
   FAIR- INDICATES FEW OR NO CLOUDS BELOW 12,000 FT, WITH NO 
         SIGNIFICANT WEATHER AND/OR OBSTRUCTIONS TO VISIBILITY.